User: anonymous   Login
Location: Deer Path Park
(40.5570°N, 74.8450°W)
Time: 18:32:04
(UTC-04:00)
Language:

Iridium 49 - Orbit

View from above orbital plane
View from above orbital plane
View from above satellite
View from above satellite

Ground track
Ground track

The orbit data is extracted from the following two-line orbital elements,

1 25108U 97082E   15116.52251369  .00000589  00000-0  20318-3 0  9998
2 25108 086.3997 222.5458 0002312 095.1520 332.1707 14.34217867908191
Epoch (UTC): 26 April 2015 12:32:25
Eccentricity: 0.0002312
inclination: 86.3997°
perigee height: 776 km
apogee height: 779 km
right ascension of ascending node: 222.5458°
argument of perigee: 95.1520°
revolutions per day: 14.34217867
mean anomaly at epoch: 332.1707°
orbit number at epoch: 90819

The dashed part of the orbit path shows where the satellite is in the earth's shadow,  

DLR